Home   Weather   Lidzbark Warmiński   Past weeks

Flag for Poland Past Weather in Lidzbark Warmiński, Poland — Yesterday and Last 2 Weeks

Now
35 °F

Chilly.


Feels Like: 27 °F
Forecast: 26 / 38 °F
Wind: 9 mph from West

Location: Ketrzyn

Current Time: Dec 5, 2016 at 1:45:49 pm

Latest Report: Dec 5, 2016 at 1:00 pm


Visibility: 7 mi

Pressure: 30.11 "Hg

Humidity: 88%

Dew Point: 31 °F

Location of Lidzbark WarmińskiLocation

Past Weather in Lidzbark Warmiński — Graph

°F

Lidzbark Warmiński Temperature Yesterday

Maximum temperature yesterday: 30 °F (at 11:00 pm)
Minimum temperature yesterday: 19 °F (at 6:00 am)
Average temperature yesterday: 25 °F

High & Low Weather Summary for the Past Weeks

 TemperatureHumidityPressure
High49 °F (Nov 21, 11:00 am)100% (Nov 24, 10:00 am)30.37 "Hg (Nov 24, 10:00 am)
Low19 °F (Nov 28, 6:00 pm)72% (Nov 29, 1:00 pm)29.41 "Hg (Dec 1, 11:00 pm)
Average35 °F91%30.01 "Hg
* Reported Nov 20 12:00 pm — Dec 5 12:00 pm, Lidzbark Warmiński, Weather by CustomWeather, © 2016

Note: Actual official high and low records may vary slightly from our data, if they occured in-between our weather recording intervals... More about our weather records

Advertising

Lidzbark Warmiński Weather History for the Previous 24 Hours

Scroll right to see more
 ConditionsComfort  
Time TempWeatherWind HumidityBarometerVisibility
12:00 pm
Mon, Dec 5
35 °FChilly.9 mph89%30.13 "Hg7 mi
11:00 am35 °FChilly.8 mph88%30.15 "Hg7 mi
10:00 am35 °FFog.8 mph87%30.18 "Hg6 mi
9:00 am35 °FFog.7 mph89%30.19 "Hg4 mi
8:00 am35 °FFog.8 mph90%30.20 "Hg4 mi
7:00 am35 °FFog.8 mph90%30.20 "Hg4 mi
6:00 am34 °FFog.7 mph93%30.22 "Hg3 mi
5:00 am34 °FFog.9 mph94%30.23 "Hg4 mi
4:00 am34 °FFog.7 mph93%30.25 "Hg4 mi
3:00 am33 °FFog.7 mph93%30.26 "Hg3 mi
2:00 am33 °FFog.7 mph93%30.28 "Hg3 mi
1:00 am32 °FFog.5 mph93%30.29 "Hg3 mi
12:00 am31 °FFog.6 mph94%30.31 "Hg4 mi
11:00 pm
Sun, Dec 4
30 °FFog.7 mph95%30.32 "Hg2 mi
10:00 pm30 °FFog.7 mph96%30.34 "Hg2 mi
9:00 pm30 °FFog.3 mph96%30.36 "Hg2 mi
8:00 pm30 °FFog.5 mph96%30.36 "Hg2 mi
7:00 pm30 °FFog.5 mph96%30.36 "Hg3 mi
6:00 pm29 °FFog.3 mph96%30.36 "Hg3 mi
5:00 pm29 °FFog.3 mph97%30.36 "Hg3 mi
4:00 pm28 °FFog.3 mph98%30.37 "Hg2 mi
3:00 pm25 °FFog.5 mph96%30.37 "Hg4 mi
2:00 pm24 °FCold.2 mph93%30.37 "Hg6 mi
1:00 pm24 °FCold.1 mph94%30.37 "Hg9 mi
Weather by CustomWeather, © 2016

See weather overviewHow to use our weather pages